Frederick, MD

8:41 PM EDT on October 17, 2017 (GMT -0400)
Frederick Municipal

Weather History for KFDK - October, 2011

Change the Weather History Date:

Sunday, October 23, 2011

  Actual Average (KHGR) Record (KHGR)
Temperature  
Mean Temperature 48 °F -  
Max Temperature 64 °F 59 °F 77 °F (2001)
Min Temperature 33 °F 41 °F 28 °F (1997)
Degree Days  
Heating Degree Days 16    
Moisture  
Dew Point 40 °F    
Average Humidity 75    
Maximum Humidity 100    
Minimum Humidity 40    
Precipitation  
Precipitation 0.00 in - - ()
Sea Level Pressure  
Sea Level Pressure 30.14 in    
Wind  
Wind Speed 1 mph (SW)    
Max Wind Speed 9 mph    
Max Gust Speed -    
Visibility 6 miles    
Events Fog    
Averages and records for this station are not official NWS values.
T = Trace of Precipitation, MM = Missing Value Source: NWS Daily Summary

Daily Weather History Graph

Daily Weather History Graph

Search for Another Location

Airport or City:

Trip Planner

Search our weather history database for the weather conditions in past years. The results will help you decide how hot, cold, wet, or windy it might be!

Date:

Astronomy

Oct. 23, 2011 Rise Set
Actual Time 7:27 AM EDT 6:19 PM EDT
Civil Twilight 7:00 AM EDT 6:46 PM EDT
Nautical Twilight 6:28 AM EDT 7:18 PM EDT
Astronomical Twilight 5:57 AM EDT 7:49 PM EDT
Moon 3:33 AM EDT (10/23) 4:08 PM EDT (10/23)
Length of Visible Light 11h 46m
Length of Day
10h 52m
Waning Crescent, 14% of the Moon is Illuminated
Oct 23
Waning Crescent
Oct 26
New
Nov 2
First Quarter
Nov 10
Full
Nov 18
Last Quarter

Hourly Weather History & Observations

Time (EDT) Temp. Dew Point Humidity Pressure Visibility Wind Dir Wind Speed Gust Speed Precip Events Conditions
4:13 AM 33.8 °F 33.8 °F 100% 30.14 in 0.2 mi Calm Calm - N/A Fog Fog
4:32 AM 33.8 °F 33.8 °F 100% 30.14 in 0.2 mi Calm Calm - N/A Fog Fog
4:52 AM 33.8 °F 33.8 °F 100% 30.14 in 0.2 mi Calm Calm - N/A Fog Fog
5:11 AM 33.8 °F 33.8 °F 100% 30.14 in 0.2 mi Calm Calm - N/A Fog Fog
5:30 AM 33.8 °F 33.8 °F 100% 30.14 in 0.2 mi Calm Calm - N/A Fog Fog
5:50 AM 33.8 °F 33.8 °F 100% 30.14 in 0.2 mi Calm Calm - N/A Fog Fog
6:09 AM 33.8 °F 33.8 °F 100% 30.14 in 0.2 mi Calm Calm - N/A Fog Fog
6:28 AM 33.8 °F 33.8 °F 100% 30.15 in 0.2 mi Calm Calm - N/A Fog Fog
6:48 AM 33.8 °F 33.8 °F 100% 30.15 in 0.2 mi Calm Calm - N/A Fog Fog
7:07 AM 33.8 °F 33.8 °F 100% 30.16 in 0.2 mi Calm Calm - N/A Fog Fog
7:26 AM 33.8 °F 33.8 °F 100% 30.17 in 0.2 mi Calm Calm - N/A Fog Fog
7:46 AM 33.8 °F 33.8 °F 100% 30.17 in 0.2 mi Calm Calm - N/A Fog Fog
8:05 AM 33.8 °F 33.8 °F 100% 30.17 in 0.2 mi Calm Calm - N/A Fog Fog
8:24 AM 35.6 °F 35.6 °F 100% 30.18 in 0.2 mi Calm Calm - N/A Fog Fog
8:43 AM 37.4 °F 37.4 °F 100% 30.19 in 0.8 mi Calm Calm - N/A   Overcast
8:44 AM 37.4 °F 37.4 °F 100% 30.19 in 0.8 mi Calm Calm - N/A   Overcast
9:03 AM 37.4 °F 37.4 °F 100% 30.19 in 0.2 mi Calm Calm - N/A Fog Fog
9:22 AM 37.4 °F 37.4 °F 100% 30.19 in 0.2 mi Calm Calm - N/A Fog Fog
10:01 AM 42.8 °F 39.2 °F 87% 30.19 in 1.8 mi Calm Calm - N/A   Overcast
10:20 AM 46.4 °F 42.8 °F 87% 30.18 in 4.0 mi Calm Calm - N/A   Scattered Clouds
10:39 AM 50.0 °F 44.6 °F 82% 30.18 in 7.0 mi Calm Calm - N/A   Clear
10:59 AM 53.6 °F 44.6 °F 72% 30.18 in 10.0 mi Calm Calm - N/A   Clear
11:18 AM 55.4 °F 44.6 °F 67% 30.18 in 10.0 mi SSW 4.6 mph - N/A   Scattered Clouds
11:37 AM 57.2 °F 44.6 °F 63% 30.18 in 10.0 mi WSW 5.8 mph - N/A   Clear
11:56 AM 57.2 °F 44.6 °F 63% 30.18 in 10.0 mi SSW 9.2 mph - N/A   Scattered Clouds
12:16 PM 59.0 °F 44.6 °F 59% 30.17 in 10.0 mi SW 6.9 mph - N/A   Scattered Clouds
12:35 PM 60.8 °F 42.8 °F 52% 30.15 in 10.0 mi SW 6.9 mph - N/A   Clear
12:54 PM 60.8 °F 42.8 °F 52% 30.15 in 10.0 mi SSW 3.5 mph - N/A   Scattered Clouds
1:14 PM 60.8 °F 42.8 °F 52% 30.14 in 10.0 mi South 5.8 mph - N/A   Scattered Clouds
1:33 PM 62.6 °F 42.8 °F 48% 30.13 in 10.0 mi SW 5.8 mph - N/A   Clear
1:52 PM 62.6 °F 41.0 °F 45% 30.12 in 10.0 mi SSW 4.6 mph - N/A   Scattered Clouds
2:12 PM 62.6 °F 39.2 °F 42% 30.12 in 10.0 mi SW 4.6 mph - N/A   Scattered Clouds
2:31 PM 64.4 °F 42.8 °F 45% 30.11 in 10.0 mi WSW 6.9 mph - N/A   Scattered Clouds
2:50 PM 62.6 °F 41.0 °F 45% 30.11 in 10.0 mi WSW 4.6 mph - N/A   Scattered Clouds
3:09 PM 62.6 °F 41.0 °F 45% 30.11 in 10.0 mi SSW 8.1 mph - N/A   Scattered Clouds
3:29 PM 64.4 °F 41.0 °F 42% 30.11 in 10.0 mi West 4.6 mph - N/A   Scattered Clouds
3:48 PM 64.4 °F 39.2 °F 40% 30.10 in 10.0 mi South 4.6 mph - N/A   Clear
4:07 PM 64.4 °F 41.0 °F 42% 30.10 in 10.0 mi SW 6.9 mph - N/A   Scattered Clouds
4:27 PM 60.8 °F 41.0 °F 48% 30.10 in 10.0 mi SSW 5.8 mph - N/A   Scattered Clouds
4:46 PM 60.8 °F 42.8 °F 52% 30.10 in 10.0 mi SSW 3.5 mph - N/A   Scattered Clouds
5:05 PM 60.8 °F 42.8 °F 52% 30.10 in 10.0 mi SSW 5.8 mph - N/A   Scattered Clouds
5:25 PM 60.8 °F 42.8 °F 52% 30.10 in 10.0 mi Calm Calm - N/A   Unknown
5:44 PM 59.0 °F 42.8 °F 55% 30.09 in 10.0 mi Calm Calm - N/A   Scattered Clouds
6:03 PM 57.2 °F 42.8 °F 59% 30.10 in 10.0 mi Calm Calm - N/A   Scattered Clouds
6:22 PM 55.4 °F 44.6 °F 67% 30.10 in 10.0 mi Calm Calm - N/A   Scattered Clouds
6:42 PM 51.8 °F 44.6 °F 76% 30.11 in 10.0 mi Calm Calm - N/A   Scattered Clouds
7:01 PM 50.0 °F 44.6 °F 82% 30.11 in 10.0 mi Calm Calm - N/A   Scattered Clouds
7:20 PM 48.2 °F 42.8 °F 82% 30.12 in 10.0 mi Calm Calm - N/A   Scattered Clouds
7:40 PM 46.4 °F 44.6 °F 93% 30.13 in 10.0 mi Calm Calm - N/A   Scattered Clouds
7:59 PM 46.4 °F 44.6 °F 93% 30.13 in 10.0 mi Calm Calm - N/A   Scattered Clouds
8:18 PM 46.4 °F 44.6 °F 93% 30.13 in 10.0 mi Calm Calm - N/A   Scattered Clouds
8:37 PM 46.4 °F 42.8 °F 87% 30.13 in 10.0 mi Calm Calm - N/A   Scattered Clouds
8:57 PM 44.6 °F 42.8 °F 93% 30.13 in 10.0 mi Calm Calm - N/A   Scattered Clouds
9:16 PM 44.6 °F 42.8 °F 93% 30.13 in 10.0 mi Calm Calm - N/A   Scattered Clouds
9:35 PM 44.6 °F 42.8 °F 93% 30.14 in 5.0 mi Calm Calm - N/A   Scattered Clouds
9:55 PM 42.8 °F 42.8 °F 100% 30.13 in 5.0 mi Calm Calm - N/A   Scattered Clouds
10:14 PM 42.8 °F 42.8 °F 100% 30.13 in 1.5 mi Calm Calm - N/A   Mostly Cloudy
10:33 PM 42.8 °F 42.8 °F 100% 30.14 in 3.0 mi Calm Calm - N/A   Scattered Clouds
10:53 PM 42.8 °F 42.8 °F 100% 30.14 in 3.0 mi Calm Calm - N/A   Scattered Clouds
11:12 PM 42.8 °F 42.8 °F 100% 30.14 in 2.5 mi Calm Calm - N/A   Scattered Clouds
11:31 PM 42.8 °F 41.0 °F 93% 30.14 in 2.5 mi Calm Calm - N/A   Scattered Clouds
11:51 PM 41.0 °F 41.0 °F 100% 30.14 in 0.8 mi Calm Calm - N/A   Mostly Cloudy